Cavalier, ND

7:15 PM CST on December 10, 2017 (GMT -0600)
Cavalier

Weather History for K2C8 - November, 2013

Change the Weather History Date:

Friday, November 15, 2013

  Actual Average (KGAF) Record (KGAF)
Temperature  
Mean Temperature 40 °F -  
Max Temperature 51 °F 36 °F 62 °F (1953)
Min Temperature 28 °F 19 °F 0 °F (1984)
Degree Days  
Heating Degree Days 26    
Moisture  
Dew Point 30 °F    
Average Humidity 77    
Maximum Humidity 100    
Minimum Humidity 50    
Precipitation  
Precipitation 0.00 in - - ()
Sea Level Pressure  
Sea Level Pressure 29.54 in    
Wind  
Wind Speed 9 mph (SSW)    
Max Wind Speed 21 mph    
Max Gust Speed 26 mph    
Visibility 10 miles    
Events      
Averages and records for this station are not official NWS values.
T = Trace of Precipitation, MM = Missing Value Source: NWS Daily Summary

Daily Weather History Graph

Daily Weather History Graph

Search for Another Location

Airport or City:

Trip Planner

Search our weather history database for the weather conditions in past years. The results will help you decide how hot, cold, wet, or windy it might be!

Date:

Astronomy

Nov. 15, 2013 Rise Set
Actual Time 7:39 AM CST 4:50 PM CST
Civil Twilight 7:05 AM CST 5:24 PM CST
Nautical Twilight 6:26 AM CST 6:02 PM CST
Astronomical Twilight 5:49 AM CST 6:40 PM CST
Moon 3:54 PM CST (11/15) 5:28 AM CST (11/15)
Length of Visible Light 10h 19m
Length of Day
9h 10m
Waxing Gibbous, 96% of the Moon is Illuminated
Nov 15
Waxing Gibbous
Nov 17
Full
Nov 25
Last Quarter
Dec 2
New
Dec 9
First Quarter

Hourly Weather History & Observations

Time (CST) Temp. Windchill Dew Point Humidity Pressure Visibility Wind Dir Wind Speed Gust Speed Precip Events Conditions
12:15 AM 35.6 °F 28.6 °F 28.4 °F 75% 29.74 in 10.0 mi WNW 9.2 mph 17.3 mph N/A   Overcast
12:35 AM 35.6 °F 30.7 °F 28.4 °F 75% 29.74 in 10.0 mi NW 5.8 mph - N/A   Overcast
12:55 AM 35.6 °F 30.7 °F 28.4 °F 75% 29.73 in 10.0 mi West 5.8 mph - N/A   Overcast
1:15 AM 35.6 °F 32.8 °F 28.4 °F 75% 29.73 in 10.0 mi West 3.5 mph - N/A   Overcast
1:35 AM 33.8 °F 29.6 °F 28.4 °F 81% 29.73 in 10.0 mi SSW 4.6 mph - N/A   Overcast
1:55 AM 33.8 °F 29.6 °F 28.4 °F 81% 29.73 in 10.0 mi SSW 4.6 mph - N/A   Overcast
2:15 AM 33.8 °F 28.6 °F 28.4 °F 81% 29.73 in 10.0 mi SSW 5.8 mph - N/A   Overcast
2:35 AM 33.8 °F 29.6 °F 28.4 °F 81% 29.72 in 10.0 mi SSW 4.6 mph - N/A   Overcast
2:55 AM 32.0 °F 26.4 °F 28.4 °F 87% 29.71 in 10.0 mi SSW 5.8 mph - N/A   Mostly Cloudy
3:15 AM 32.0 °F 27.5 °F 26.6 °F 80% 29.70 in 10.0 mi South 4.6 mph - N/A   Scattered Clouds
3:35 AM 30.2 °F 25.4 °F 26.6 °F 86% 29.69 in 10.0 mi South 4.6 mph - N/A   Partly Cloudy
3:55 AM 28.4 °F 22.2 °F 26.6 °F 93% 29.69 in 10.0 mi SSW 5.8 mph - N/A   Mostly Cloudy
4:15 AM 32.0 °F 28.7 °F 26.6 °F 80% 29.69 in 10.0 mi SSW 3.5 mph - N/A   Mostly Cloudy
4:35 AM 30.2 °F 25.4 °F 26.6 °F 86% 29.69 in 10.0 mi SSW 4.6 mph - N/A   Overcast
4:55 AM 30.2 °F 25.4 °F 26.6 °F 86% 29.68 in 10.0 mi South 4.6 mph - N/A   Overcast
5:15 AM 30.2 °F 25.4 °F 26.6 °F 86% 29.68 in 10.0 mi SSE 4.6 mph - N/A   Overcast
5:35 AM 28.4 °F 20.4 °F 26.6 °F 93% 29.68 in 10.0 mi South 8.1 mph - N/A   Mostly Cloudy
5:55 AM 28.4 °F 19.7 °F 26.6 °F 93% 29.68 in 10.0 mi SSW 9.2 mph - N/A   Partly Cloudy
6:15 AM 28.4 °F 19.7 °F 26.6 °F 93% 29.67 in 10.0 mi SSW 9.2 mph - N/A   Partly Cloudy
6:35 AM 28.4 °F 19.7 °F 26.6 °F 93% 29.67 in 10.0 mi SSW 9.2 mph - N/A   Clear
6:55 AM 28.4 °F 19.7 °F 26.6 °F 93% 29.67 in 10.0 mi SSW 9.2 mph - N/A   Clear
7:15 AM 28.4 °F 19.1 °F 26.6 °F 93% 29.66 in 10.0 mi South 10.4 mph - N/A   Clear
7:35 AM 28.4 °F 19.7 °F 26.6 °F 93% 29.66 in 10.0 mi South 9.2 mph - N/A   Clear
7:55 AM 28.4 °F 19.7 °F 26.6 °F 93% 29.65 in 10.0 mi South 9.2 mph - N/A   Clear
8:15 AM 28.4 °F 18.5 °F 26.6 °F 93% 29.65 in 10.0 mi South 11.5 mph - N/A   Clear
8:35 AM 28.4 °F 18.0 °F 26.6 °F 93% 29.64 in 10.0 mi South 12.7 mph - N/A   Clear
8:55 AM 30.2 °F 19.3 °F 26.6 °F 86% 29.63 in 10.0 mi SSW 15.0 mph - N/A   Clear
9:15 AM 32.0 °F 21.6 °F 28.4 °F 87% 29.62 in 10.0 mi South 15.0 mph - N/A   Clear
9:35 AM 32.0 °F 21.2 °F 28.4 °F 87% 29.61 in 10.0 mi South 16.1 mph - N/A   Clear
9:55 AM 32.0 °F 20.8 °F 28.4 °F 87% 29.61 in 10.0 mi South 17.3 mph - N/A   Clear
10:15 AM 33.8 °F 23.9 °F 30.2 °F 87% 29.60 in 10.0 mi South 15.0 mph 21.9 mph N/A   Clear
10:35 AM 35.6 °F 26.2 °F 32.0 °F 87% 29.59 in 10.0 mi South 15.0 mph 19.6 mph N/A   Clear
10:55 AM 37.4 °F 27.8 °F 32.0 °F 81% 29.58 in 10.0 mi South 17.3 mph - N/A   Clear
11:15 AM 39.2 °F 29.6 °F 32.0 °F 75% 29.57 in 10.0 mi South 19.6 mph - N/A   Clear
11:35 AM 41.0 °F 31.9 °F 32.0 °F 70% 29.56 in 10.0 mi South 19.6 mph - N/A   Clear
11:55 AM 42.8 °F 34.0 °F 33.8 °F 70% 29.54 in 10.0 mi South 20.7 mph 25.3 mph N/A   Clear
12:15 PM 46.4 °F 39.0 °F 35.6 °F 66% 29.52 in 10.0 mi South 19.6 mph 25.3 mph N/A   Clear
12:35 PM 46.4 °F 39.2 °F 35.6 °F 66% 29.51 in 10.0 mi South 18.4 mph 24.2 mph N/A   Clear
12:55 PM 46.4 °F 40.1 °F 35.6 °F 66% 29.50 in 10.0 mi South 15.0 mph 21.9 mph N/A   Clear
1:15 PM 48.2 °F - 33.8 °F 58% 29.49 in 10.0 mi South 18.4 mph 25.3 mph N/A   Clear
1:35 PM 50.0 °F - 33.8 °F 54% 29.48 in 10.0 mi SSW 19.6 mph 26.5 mph N/A   Clear
1:55 PM 50.0 °F - 33.8 °F 54% 29.47 in 10.0 mi SSW 19.6 mph 26.5 mph N/A   Clear
2:15 PM 50.0 °F - 33.8 °F 54% 29.46 in 10.0 mi SSW 18.4 mph 23.0 mph N/A   Clear
2:35 PM 50.0 °F - 33.8 °F 54% 29.45 in 10.0 mi South 18.4 mph - N/A   Clear
2:55 PM 51.8 °F - 33.8 °F 50% 29.45 in 10.0 mi SSW 13.8 mph - N/A   Clear
3:15 PM 51.8 °F - 33.8 °F 50% 29.44 in 10.0 mi South 13.8 mph - N/A   Clear
3:35 PM 50.0 °F - 32.0 °F 50% 29.43 in 10.0 mi SSW 15.0 mph 20.7 mph N/A   Clear
3:55 PM 50.0 °F - 32.0 °F 50% 29.43 in 10.0 mi SSW 13.8 mph 20.7 mph N/A   Clear
4:15 PM 50.0 °F - 32.0 °F 50% 29.42 in 10.0 mi SSW 11.5 mph - N/A   Clear
4:35 PM 48.2 °F - 32.0 °F 54% 29.42 in 10.0 mi South 11.5 mph - N/A   Clear
4:55 PM 46.4 °F 41.1 °F 32.0 °F 57% 29.42 in 10.0 mi South 11.5 mph - N/A   Clear
5:15 PM 44.6 °F 38.8 °F 32.0 °F 61% 29.42 in 10.0 mi South 11.5 mph - N/A   Clear
5:35 PM 44.6 °F 39.2 °F 32.0 °F 61% 29.42 in 10.0 mi South 10.4 mph - N/A   Clear
5:55 PM 41.0 °F 35.2 °F 32.0 °F 70% 29.41 in 10.0 mi South 9.2 mph - N/A   Clear
6:15 PM 39.2 °F 32.0 °F 32.0 °F 75% 29.41 in 10.0 mi South 11.5 mph - N/A   Clear
6:35 PM 39.2 °F 33.0 °F 32.0 °F 75% 29.41 in 10.0 mi South 9.2 mph - N/A   Scattered Clouds
6:55 PM 41.0 °F 34.3 °F 32.0 °F 70% 29.42 in 10.0 mi South 11.5 mph - N/A   Mostly Cloudy
7:15 PM 41.0 °F 34.3 °F 32.0 °F 70% 29.41 in 10.0 mi South 11.5 mph - N/A   Mostly Cloudy
7:35 PM 41.0 °F 34.3 °F 32.0 °F 70% 29.41 in 10.0 mi South 11.5 mph - N/A   Overcast
7:55 PM 41.0 °F 35.2 °F 32.0 °F 70% 29.40 in 10.0 mi South 9.2 mph - N/A   Overcast
8:15 PM 39.2 °F 33.0 °F 32.0 °F 75% 29.39 in 10.0 mi South 9.2 mph - N/A   Mostly Cloudy
8:35 PM 39.2 °F 33.0 °F 32.0 °F 75% 29.38 in 10.0 mi SSE 9.2 mph - N/A   Mostly Cloudy
8:55 PM 41.0 °F 34.7 °F 32.0 °F 70% 29.37 in 8.0 mi South 10.4 mph - N/A   Mostly Cloudy
9:15 PM 37.4 °F 32.1 °F 32.0 °F 81% 29.37 in 10.0 mi SSW 6.9 mph - N/A   Partly Cloudy
9:35 PM 35.6 °F 32.8 °F 32.0 °F 87% 29.37 in 10.0 mi SW 3.5 mph - N/A   Clear
9:55 PM 33.8 °F 30.8 °F 32.0 °F 93% 29.36 in 10.0 mi SSW 3.5 mph - N/A   Clear
10:15 PM 35.6 °F 32.8 °F 32.0 °F 87% 29.36 in 10.0 mi SSE 3.5 mph - N/A   Clear
10:35 PM 32.0 °F 27.5 °F 30.2 °F 93% 29.35 in 10.0 mi SSE 4.6 mph - N/A   Clear
10:55 PM 32.0 °F 27.5 °F 28.4 °F 87% 29.34 in 10.0 mi South 4.6 mph - N/A   Clear
11:15 PM 32.0 °F 26.4 °F 30.2 °F 93% 29.33 in 10.0 mi South 5.8 mph - N/A   Clear
11:35 PM 32.0 °F 26.4 °F 28.4 °F 87% 29.33 in 10.0 mi South 5.8 mph - N/A   Clear
11:55 PM 32.0 °F 26.4 °F 32.0 °F 100% 29.33 in 10.0 mi SSW 5.8 mph - N/A   Clear